sat.trackr.live / text

‹ back to catalog

STARLINK-6067

NORAD 56816 · 2023-078BB

PAYLOAD ACTIVE UNKNOWN

§ Identity

Operator
Country
US
Launch date
2023-05-31
Launch site
AFWTR
Launch vehicle
Mass (kg)
RCS (m²)

Purposes: comms

External: N2YO · Heavens-Above · Gunter

§ Orbital elements

Epoch: 2026-09-20T22:00:03.000096Z

Period
95.52 min
Inclination
69.9997°
Eccentricity
0.0001764
Mean motion
15.07467597 rev/d
Perigee alt
542.7 km
Apogee alt
545.2 km
Semi-major
6,922.1 km
B*
-2.6180e-4
RAAN
191.8857°
Arg perigee
311.2590°
Mean anomaly
97.1948°
Rev number
566

§ Raw data

STARLINK-60671 56816U 23078BB  26263.91670139 -.00004077  00000+0 -26180-3 0  99902 56816  69.9997 191.8857 0001764 311.2590  97.1948 15.07467597  5661

JSON: /api/v1/satellites/56816 · /tle

For live sub-satellite position, see the globe view (requires WebGL).

§ Visibility from observer

Set your observer location to see the next 7 days of passes ≥ 10°. The values pass through the URL so the page stays shareable.

No JS? Fill the form by hand. The geolocation button needs JavaScript.